Regional Weather Roundup
Issued by NWS Portland, ME

Current Version | Previous Version | Graphics & Text | Print | Product List | Glossary On
Versions: 1 2 3 4 5 6 7 8 9 10 11 12 13 14 15 16 17 18 19 20 21 22 23 24 25 26 27 28 29 30 31 32 33 34 35 36 37 38 39 40 41 42 43 44 45 46 47 48 49 50
000
ASUS41 KGYX 291310
RWRGYX
WEATHER ROUNDUP FOR MAINE AND NEW HAMPSHIRE
NATIONAL WEATHER SERVICE GRAY ME
900 AM EDT SUN MAR 29 2015

MEZ002-005-006-010-012-015-018-020-021-024-026-027-029-291400-
MAINE

CITY           SKY/WX    TMP DP  RH WIND       PRES   REMARKS
PORTLAND       SUNNY     30   4  33 NW6       30.17R
SANFORD        SUNNY     28   7  40 W3        30.17R
BAR HARBOR     SUNNY     27   5  39 N9        30.13R
WISCASSET      SUNNY     28   3  34 VRB3      30.17R
ROCKLAND       SUNNY     27   1  33 NW6       30.14R
FRYEBURG       SUNNY     26   7  44 CALM      30.14R
LEWISTONAUBURN SUNNY     25   1  36 CALM      30.14S
AUGUSTA        SUNNY     26   1  34 NW5       30.14R
WATERVILLE     SUNNY     27   1  33 NW5       30.11R
BANGOR         SUNNY     24   3  40 NW9       30.13R
GREENVILLE       N/A     18  -5  36 NW10      30.02R WCI   6
MILLINOCKET    SUNNY     23   4  44 W7        30.10R
HOULTON        SUNNY     22   0  38 VRB6      30.04R
PRESQUE ISLE   SUNNY     21   0  39 NW7       30.04R
FRENCHVILLE    SUNNY     19   1  45 W7        29.98R
CARIBOU        SUNNY     21   0  39 NW9       30.01R
$$

NHZ002-005-008-009-011-012-014-291400-
NEW HAMPSHIRE

CITY           SKY/WX    TMP DP  RH WIND       PRES   REMARKS
PORTSMOUTH     SUNNY     27   7  43 W5        30.18R
ROCHESTER      SUNNY     27   7  42 NW5       30.16R
NASHUA         SUNNY     28   3  34 NW8       30.20R
MANCHESTER     SUNNY     27   6  41 NW9       30.18R
CONCORD        SUNNY     26   5  40 NW5       30.18R
LACONIA        SUNNY     25   5  42 SW8       30.14R
PLYMOUTH       FAIR      26   8  47 W12       30.16S WCI  15
BERLIN         SUNNY     22   4  46 CALM      30.12R
WHITEFIELD     SUNNY     19   8  62 CALM      30.15R
JAFFREY        SUNNY     23   1  38 VRB6      30.15R
KEENE          SUNNY     21   9  58 CALM      30.21R
LEBANON        SUNNY     23   6  48 W6        30.19R
MT WASHINGTON  SUNNY      3 -26  25 N30         N/A  WCI -21
$$

VTZ005-007-008-291400-
VERMONT

CITY           SKY/WX    TMP DP  RH WIND       PRES   REMARKS
ST JOHNSBURY     N/A     16   7  67 MISG      30.17R
MONTPELIER     SUNNY     17   6  62 CALM      30.19R
BURLINGTON     SUNNY     23  10  57 S3        30.23R
$$

MAZ007-012-024-CTZ003-RIZ002-NYZ038-NYZ072-291400-
SOUTHERN NEW ENGLAND AND NY

CITY           SKY/WX    TMP DP  RH WIND       PRES   REMARKS
BOSTON         MOSUNNY   29   8  41 NW8       30.20R
WORCESTER      SUNNY     25   2  37 N10       30.15R WCI  15
NANTUCKET      PTSUNNY   35  24  64 N21       30.13R
PROVIDENCE     PTSUNNY   26  12  55 N13       30.20R WCI  15
HARTFORD       MOSUNNY   29   5  36 N10       30.22R WCI  20
ALBANY         SUNNY     24   7  48 CALM      30.26S
NEW YORK CITY  MOSUNNY   29   5  36 NW14      30.27R WCI  18
$$

ANZ081-ANZ082-ANZ150-NHZ014-MEZ023>029-291400-
COASTAL MARINE OBSERVATIONS

STATION/POSITION TIME  TEMP    WIND        PRES    WAVE
                       AIR SEA DIR/SP/G            HT/PER
                 (UTC) (F)     (DEG/KT/KT) (MB)    (FT/S)
MOUNT DESERT ROC 1200   27                 1018.9R
MATINICUS ROCK   1300   26     330/ 14/ 16 1020.7R
WELLS            1206   26     320/  4/  6 1021.0R
ISLE OF SHOALS   1300   26     310/  7/  8 1021.7R
JEFFREYS LEDGE   1221      40                N/A     8/11
CASHES LEDGE BUO 1250   30                   N/A
$$

.............KEY..............
   WCI - WIND CHILL
   TC  - TEMPERATURE IN CELSIUS
   VSB - VISIBILITY IN MILES
   HX  - HEAT INDEX
   FAIR- INDICATES FEW OR NO CLOUDS BELOW 12,000 FT, WITH NO
         SIGNIFICANT WEATHER AND/OR OBSTRUCTIONS TO VISIBILITY.




USA.gov is the U.S. government's official web portal to all federal, state and local government web resources and services.